Location: Edemissen
(51.7689°N, 9.8634°E)
Time: 17:15:50
(UTC+00:00)

UNISAT 6 - Visible Passes

Search period start: 21 May 2026 00:00
Search period end: 31 May 2026 00:00
Orbit: 572 x 636 km, 97.8° (Epoch: 21 May)

Date Brightness Start Highest point End Pass type
(mag) Time Alt. Az. Time Alt. Az. Time Alt. Az.
21 May ? 01:04:13 10° ESE 01:07:22 20° ENE 01:10:31 10° NNE visible
22 May ? 01:16:04 10° ESE 01:19:34 25° ENE 01:23:03 10° N visible
23 May ? 01:28:00 10° SE 01:31:47 31° ENE 01:35:33 10° N visible
24 May ? 01:40:01 10° SE 01:44:01 39° ENE 01:47:58 10° N visible
25 May ? 01:52:06 10° SE 01:56:15 51° ENE 02:00:22 10° N visible
26 May ? 00:32:23 10° ENE 00:33:29 11° NE 00:34:34 10° NE visible
26 May ? 02:04:16 10° SSE 02:08:31 66° ENE 02:12:42 10° N visible
27 May ? 00:43:31 10° E 00:45:36 14° NE 00:47:40 10° NNE visible
27 May ? 02:16:30 10° SSE 02:20:47 86° ENE 02:25:00 10° NNW visible
28 May ? 00:55:02 10° E 00:57:44 17° ENE 01:00:24 10° NNE visible
29 May ? 01:06:44 10° ESE 01:09:52 21° ENE 01:12:59 10° NNE visible
30 May ? 01:18:33 10° ESE 01:22:02 26° ENE 01:25:29 10° N visible
